"Pseudo-MPEC" for P21vq09

Created 2022 Aug 14 13:22:20 UT using Find_Orb

Click here for an explanation of pseudo-MPECs

 
 Astrometry: 
     P21vq09* C2022 07 25922d!EV`Al45u')*oC44Astrometrybkx/cx'P]redacted;;QM5F52
     P21vq09  C2022 07 25;N4Ki/=WD8_MwTK1BgV@Q?XJsL-;H()sqclick9jO7(4?here%BjF52
     P21vq09  C2022 07 25jW^.@W@j39p@mfBvIoG_PTgdsGfor`=7$N8=]2NWexplanationVF52

Station data:
(F52) Pan-STARRS 2, Haleakala  (N20.707382 W156.255910)  US/Hawaii.
   Observers J. Bulger, T. Dukes, T. Lowe, A. Schultz, M. Willman. Measurers
   K. Chambers, S. Chastel, T. de Boer, L. Denneau, J. Fairlamb, H.
   Flewelling, M. Huber, C.-C. Lin, E. Magnier, Y. Ramanjooloo, R. Wainscoat,
   R. Weryk. 1.8-m Ritchey-Chrétien + CCD.

Orbital elements:  P21vq09
   Perihelion 2022 Jun 14.09325 +/- 364 TT =  2:14:16 (JD 2459744.59325)
Epoch 2022 Jul 26.0 TT = JDT 2459786.5                        AutoNEOCP
M   7.67999530 +/- 21               (J2000 ecliptic)
n   0.18326391 +/- 0.17             Peri.  249.08323 +/- 80
a   3.06962089 +/- 1.9              Node    46.60896 +/- 47
e   0.3594675 +/- 0.247             Incl.   18.91186 +/- 19
P   5.38                   H 17.4   G  0.15   U 11.6  SR
q 1.96619191 +/- 1.79    Q 4.17304988 +/- 79.5
From 3 observations 2022 July 25 (25.6 min); mean residual 0".03
Residuals in arcseconds: 
220725 F52  .00   .03-    220725 F52  .01+  .05+    220725 F52  .00   .03-    

Ephemerides (geocentric):
Date (UTC) HH   RA             Dec           delta  r     elong  mag " sig PA
---- --------  ------------   ------------  ------ ------ -----  --- --------
2022 08 14 13  22 37 38.743   -48 01 13.49  1.1078 2.0169 143.9 20.1  29d  38
2022 08 14 14  22 37 36.319   -48 01 17.48  1.1079 2.0169 143.9 20.1  29d  38
2022 08 14 15  22 37 33.893   -48 01 21.42  1.1079 2.0170 143.9 20.1  29d  38
2022 08 14 16  22 37 31.465   -48 01 25.32  1.1080 2.0171 143.9 20.1  29d  38
2022 08 14 17  22 37 29.035   -48 01 29.17  1.1081 2.0171 143.9 20.1  29d  38
2022 08 14 18  22 37 26.604   -48 01 32.97  1.1081 2.0172 143.9 20.1  29d  38
2022 08 14 19  22 37 24.170   -48 01 36.73  1.1082 2.0173 144.0 20.1  29d  38
2022 08 14 20  22 37 21.735   -48 01 40.44  1.1083 2.0173 144.0 20.1  29d  38
2022 08 14 21  22 37 19.297   -48 01 44.10  1.1084 2.0174 144.0 20.1  29d  38
2022 08 14 22  22 37 16.858   -48 01 47.72  1.1084 2.0175 144.0 20.1  29d  38
2022 08 14 23  22 37 14.417   -48 01 51.29  1.1085 2.0175 144.0 20.1  29d  38
2022 08 15 00  22 37 11.974   -48 01 54.81  1.1086 2.0176 144.0 20.1  29d  38
2022 08 15 01  22 37 09.529   -48 01 58.29  1.1086 2.0177 144.0 20.1  29d  38
2022 08 15 02  22 37 07.083   -48 02 01.72  1.1087 2.0177 144.0 20.1  29d  38
2022 08 15 03  22 37 04.634   -48 02 05.11  1.1088 2.0178 144.0 20.1  29d  38
2022 08 15 04  22 37 02.184   -48 02 08.45  1.1089 2.0179 144.0 20.1  29d  38
2022 08 15 05  22 36 59.732   -48 02 11.74  1.1089 2.0179 144.0 20.1  29d  38
2022 08 15 06  22 36 57.278   -48 02 14.98  1.1090 2.0180 144.0 20.1  29d  38
2022 08 15 07  22 36 54.823   -48 02 18.18  1.1091 2.0181 144.0 20.1  29d  38
2022 08 15 08  22 36 52.365   -48 02 21.33  1.1092 2.0181 144.0 20.1  29d  38
2022 08 15 09  22 36 49.906   -48 02 24.43  1.1092 2.0182 144.0 20.1  29d  38
2022 08 15 10  22 36 47.445   -48 02 27.49  1.1093 2.0183 144.0 20.1  29d  38
2022 08 15 11  22 36 44.983   -48 02 30.50  1.1094 2.0183 144.0 20.1  29d  38
2022 08 15 12  22 36 42.518   -48 02 33.47  1.1095 2.0184 144.0 20.1  29d  38
2022 08 15 13  22 36 40.052   -48 02 36.38  1.1095 2.0185 144.0 20.1  29d  38
2022 08 15 14  22 36 37.584   -48 02 39.25  1.1096 2.0185 144.0 20.1  29d  38
2022 08 15 15  22 36 35.115   -48 02 42.07  1.1097 2.0186 144.0 20.1  29d  38
2022 08 15 16  22 36 32.643   -48 02 44.85  1.1098 2.0187 144.0 20.1  29d  38
2022 08 15 17  22 36 30.170   -48 02 47.58  1.1098 2.0187 144.0 20.1  29d  38
2022 08 15 18  22 36 27.696   -48 02 50.26  1.1099 2.0188 144.0 20.1  29d  38
2022 08 15 19  22 36 25.219   -48 02 52.89  1.1100 2.0189 144.0 20.1  29d  38
2022 08 15 20  22 36 22.741   -48 02 55.48  1.1101 2.0190 144.0 20.1  29d  38
2022 08 15 21  22 36 20.261   -48 02 58.02  1.1102 2.0190 144.0 20.1  29d  38
2022 08 15 22  22 36 17.780   -48 03 00.51  1.1102 2.0191 144.0 20.1  29d  38
2022 08 15 23  22 36 15.297   -48 03 02.96  1.1103 2.0192 144.0 20.1  29d  38
2022 08 16 00  22 36 12.812   -48 03 05.36  1.1104 2.0192 144.0 20.1  29d  38
2022 08 16 01  22 36 10.326   -48 03 07.71  1.1105 2.0193 144.0 20.1  29d  38
2022 08 16 02  22 36 07.838   -48 03 10.01  1.1106 2.0194 144.0 20.1  29d  38
2022 08 16 03  22 36 05.349   -48 03 12.27  1.1106 2.0194 144.0 20.1  29d  38
2022 08 16 04  22 36 02.858   -48 03 14.48  1.1107 2.0195 144.0 20.1  29d  38
2022 08 16 05  22 36 00.365   -48 03 16.64  1.1108 2.0196 144.0 20.1  29d  38
2022 08 16 06  22 35 57.871   -48 03 18.75  1.1109 2.0196 144.0 20.1  29d  38
2022 08 16 07  22 35 55.375   -48 03 20.82  1.1110 2.0197 144.0 20.1  29d  38
2022 08 16 08  22 35 52.878   -48 03 22.84  1.1110 2.0198 144.0 20.1  29d  38
2022 08 16 09  22 35 50.379   -48 03 24.81  1.1111 2.0198 144.0 20.1  29d  38
2022 08 16 10  22 35 47.878   -48 03 26.74  1.1112 2.0199 144.0 20.1  29d  38
2022 08 16 11  22 35 45.376   -48 03 28.61  1.1113 2.0200 144.0 20.1  29d  38
2022 08 16 12  22 35 42.872   -48 03 30.44  1.1114 2.0200 144.0 20.1  29d  38